Location: A�t Mekraz
(32.6872°N, 5.3395°W)
Time: 16:59:09
(UTC+00:00)

Daily predictions for brighter satellites

Satellite Brightness Start Highest point End
(mag) Time Altitude Azimuth Time Altitude Azimuth Time Altitude Azimuth
Envisat 3.0 18:03:43 10° SSE 18:08:43 63° ENE 18:13:44 10° N
Cosmos 1953 Rocket 4.0 18:06:02 10° SSE 18:10:15 43° E 18:14:30 10° NNE
DELTA 2 R/B (1) 4.3 18:08:05 10° WNW 18:13:21 41° N 18:18:38 10° ENE
COSMOS 2428 4.0 18:08:58 10° NNW 18:14:26 46° WSW 18:19:52 10° S
Cosmos 1758 Rocket 3.5 18:10:29 10° S 18:14:47 89° WNW 18:19:05 10° N
COSMO-SKYMED 1 2.5 18:14:14 10° NNE 18:18:34 70° ESE 18:22:52 10° S
YAOGAN 6 2.8 18:15:08 10° SSE 18:18:43 51° ENE 18:22:17 10° N
Cosmos 44 3.7 18:16:04 10° SW 18:20:42 60° WNW 18:25:09 10° NNE
Cosmos 1703 3.7 18:17:01 10° SSE 18:20:43 40° E 18:24:27 10° NNE
NOSS 0 Rocket 4.2 18:16:10 10° NNW 18:22:22 78° WSW 18:28:31 10° SSE
Cosmos 1939 Rocket 4.1 18:24:56 10° ESE 18:27:48 20° ENE 18:30:43 10° NNE
NOAA 12 4.3 18:23:03 10° S 18:28:16 76° WSW 18:33:31 10° NNW
Meteor 2-1 Rocket 4.4 18:23:30 10° NNW 18:29:01 76° W 18:34:36 10° S
Cosmos 2366 rocket 4.0 18:25:10 10° S 18:31:14 62° E 18:37:24 10° NNE
OAO 3 Rocket 4.5 18:30:44 10° SSW 18:34:36 26° SSE 18:37:52 13° E
Cosmos 1269 Rocket 4.2 18:29:30 10° NNW 18:34:47 78° WSW 18:40:03 10° S
Cosmos 1825 Rocket 4.5 18:34:18 10° SSW 18:38:32 51° W 18:42:45 10° N
Okean-O 3.1 18:36:59 10° S 18:41:21 67° W 18:45:46 10° NNW
Shenzhou-11 Module 4.3 18:46:05 10° NNW 18:47:02 11° N 18:47:57 10° N
CSL-04 Rocket 3.8 18:43:24 10° SSE 18:48:41 52° ENE 18:54:02 10° N
CZ-2D R/B 3.7 18:45:56 10° SE 18:49:27 37° ENE 18:53:00 10° N
Cosmos 2237 Rocket 2.7 18:46:25 10° NNW 18:51:58 62° WSW 18:57:29 10° S
Ariane Rocket 4.0 18:48:29 10° ESE 18:52:21 22° ENE 18:56:13 10° NNE
Centaur AC-112 3.4 18:51:02 10° SW 18:52:46 20° SSE 18:54:02 16° SE
Cosmos 44 Rocket 3.6 18:49:32 10° S 18:54:09 45° ESE 18:56:57 21° NE
Cosmos 1455 2.1 18:51:51 10° N 18:55:38 87° W 18:59:23 10° S
USA 116 3.4 18:54:02 10° N 18:57:07 69° WNW 19:00:13 10° SSW
CZ-4 R/B 1.6 18:59:17 10° S 19:03:16 71° W 19:07:22 10° NNW
OAO 2 Rocket 4.1 18:58:50 10° SW 19:03:18 36° SSE 19:05:20 25° ESE
Atlas Centaur 2 2.0 18:59:46 10° WSW 19:04:14 64° S 19:07:11 27° E
Cosmos 1727 Rocket 3.9 19:00:35 10° N 19:06:42 62° E 19:12:47 10° SSE
USA 234 3.3 19:01:50 10° SE 19:08:23 84° SW 19:14:57 10° NW
ATLAS CENTAUR R/B 3.4 19:07:52 10° N 19:08:22 12° NNE 19:08:22 12° NNE
Cosmos 2227 4.4 19:05:43 10° S 19:11:13 49° ESE 19:14:12 26° NE
GPS 2-05 Rocket1 4.3 19:10:27 10° SSW 19:11:41 18° S 19:11:41 18° S
Cosmos-2242 4.5 19:09:23 10° NNW 19:13:22 39° W 19:17:19 10° SSW
Meteor 1-11 4.3 19:09:23 10° SSW 19:15:00 76° W 19:20:36 10° N
SL-16 R/B 2.1 19:10:17 10° NNW 19:15:57 72° ENE 19:21:34 10° SSE
YAOGAN 1 2.9 19:12:09 10° S 19:16:25 67° WSW 19:20:44 10° NNW
Meteor 1-27 4.2 19:15:22 10° N 19:20:50 56° E 19:26:17 10° SSE
USA 238 DEB 3.7 19:20:06 10° S 19:26:28 52° ESE 19:28:44 37° ENE
USA 238 3.7 19:20:15 10° S 19:26:36 52° ESE 19:28:48 38° ENE
Cosmos 1356 Rocket 3.5 19:31:04 10° NNW 19:35:08 70° W 19:39:14 10° S
OAO 1 Rocket 4.4 19:29:49 10° W 19:35:08 70° N 19:36:05 57° NE
Cosmos 2251 Rocket 3.5 19:30:01 10° NNW 19:35:20 81° WSW 19:40:39 10° SSE
Cosmos 2263 Rocket 2.1 19:30:16 10° S 19:35:43 61° ESE 19:36:32 54° ENE
Meteor 2-2 Rocket 4.4 19:32:00 10° N 19:37:54 55° E 19:43:44 10° SSE
Cosmos 1821 Rocket 3.9 19:32:51 10° S 19:39:14 87° E 19:45:36 10° N
ADEOS Rocket 3.6 19:35:53 10° N 19:42:45 74° WNW 19:50:17 10° SSW
IRS-1A Rocket 4.2 19:38:51 10° SSE 19:44:37 70° ENE 19:50:17 10° N
H-2A R/B 4.3 19:51:27 10° SW 19:54:45 21° S 20:03:35 10° SE
DELTA 2 R/B (1) 4.0 19:54:57 10° WNW 19:59:43 51° NNW 19:59:43 51° NNW
Cosmos 1371 Rocket 4.2 19:59:22 10° SSW 20:03:53 66° SW 20:03:53 66° SW
CZ-3C R/B 3.9 19:49:07 10° W 20:08:19 26° SW 20:12:08 16° S
Cosmos 1934 Rocket 4.0 20:10:11 10° S 20:15:51 73° WSW 20:15:51 73° WSW
FALCON 9 R/B 2.8 20:13:53 10° WSW 20:27:43 76° SW 20:27:43 76° SW
Ariane Rocket 4.5 20:26:30 10° SSW 20:31:02 34° W 20:35:37 10° NNW
NOSS 3-2 (A) 4.4 20:33:14 10° SW 20:37:13 40° W 20:37:13 40° W
CENTAUR R/B 4.4 20:34:57 10° SSW 20:35:51 15° SSW 20:35:51 15° SSW
Atlas Centaur 2 4.1 20:47:55 10° W 20:49:47 23° W 20:49:47 23° W
